Location: Auckland
(36.8500°S, 174.7800°E)
Time: 08:29:49
(UTC+12:00)

ISS - Pass Details

Date: 21 March 2026
Orbit: 416 x 424 km, 51.6° (Epoch: 11 April)

Event Time Altitude Azimuth Distance (km) Brightness Sun altitude
Exits shadow 06:19:48 17° 235° (SW) 1,165 -1.9 -13.7°
Maximum altitude 06:20:57 20° 208° (SSW) 1,059 -1.9 -13.4°
Drops below altitude 10° 06:23:33 10° 159° (SSE) 1,522 -0.5 -12.9°
Sets 06:26:04 0° 140° (SE) 2,394 0.9 -12.4°
